Location: Bukit Setapoh
(2.2500°N, 113.8000°E)
Time: 23:04:47
(UTC+00:00)

GPS 2-14 Rocket1 - Pass Details

Date: 25 July 2021
Orbit: 474 x 537 km, 20.7° (Epoch: 18 September)

Event Time Altitude Azimuth Distance (km) Brightness Sun altitude
Rises 10:55:16 0° 293° (WNW) 2,512 9.2 -4.9°
Reaches altitude 10° 10:57:29 10° 294° (WNW) 1,628 7.1 -5.4°
Maximum altitude 11:01:14 83° 21° (NNE) 475 2.5 -6.3°
Drops below altitude 10° 11:04:58 10° 110° (ESE) 1,621 4.5 -7.1°
Enters shadow 11:05:10 - 110° (ESE) 1,699 4.6 -7.2°
